Terug naar catalogus

STARLINK-3612

ActiefCommunicatieVLEO
NORAD 51770·PAYLOAD·🇺🇸 United States

Gelanceerd Feb 25, 2022 vanaf Vandenberg Space Force Base

Loading…

Volgende Passages (komende 24 uur)

TLE

VersSource: CelesTrak SupGP

Epoch: Sep 15, 2026, 02:08 UTC

1 51770C 22017C   26258.08937500 -.00276700  00000+0 -83873-2 0  2589
2 51770  53.1582 197.1359 0001354  91.2034 350.7855 15.33720618    13

Volg STARLINK-3612 in realtime met AllMySat

Download on the App Store